[[[{"header":{"parameterUnit":"kt","parameterCategory":2,"dx":1,"dy":1,"la1":30.253999710083008,"la2":30.299108505249023,"lo1":-89.0895004272461,"lo2":-89.04439544677734,"nx":28,"ny":28,"refTime":"2022-09-17T21:00:00:Z","depth":0,"parameterNumber":1,"parameterNumberName":"U-component_of_WINDS"},"data":[-6.8724,-6.8834,-6.8792,-6.8901,-6.8881,-6.8949,-6.896,-6.8971,-6.8969,-6.905,-6.9089,-6.906,-6.9044,-6.9085,-6.9128,-6.9114,-6.9138,-6.9211,-6.9183,-6.889,-6.8847,-6.8806,-6.8776,-6.9216,-6.9216,-6.9493,-6.9496,-6.9498,-6.8526,-6.8506,-6.8548,-6.8561,-6.8599,-6.8504,-6.8507,-6.8546,-6.8611,-6.8609,-6.8643,-6.8711,-6.876,-6.8717,-6.8759,-6.8815,-6.8774,-6.883,-6.8826,-6.8826,-6.8511,-6.8479,-6.8863,-6.8863,-6.8863,-6.8863,-6.8863,-6.8863,-6.8152,-6.8219,-6.8198,-6.8243,-6.8237,-6.8247,-6.8305,-6.8263,-6.8306,-6.8338,-6.8277,-6.835,-6.8341,-6.8367,-6.8365,-6.8424,-6.8354,-6.8403,-6.8415,-6.843,-6.8454,-6.807,-6.8429,-6.8427,-6.8426,-6.8425,-6.8424,0,-6.7865,-6.7823,-6.7857,-6.7882,-6.7911,-6.7926,-6.7931,-6.7966,-6.7861,-6.7901,-6.7956,-6.7981,-6.8032,-6.8082,-6.8109,-6.8095,-6.8002,-6.7986,-6.802,-6.8052,-6.808,-6.8072,-6.7565,-6.7975,-6.7971,-6.7968,-6.7966,-6.7965,-6.7488,-6.7568,-6.7522,-6.7554,-6.7543,-6.7595,-6.7617,-6.7517,-6.7546,-6.754,-6.7606,-6.7651,-6.7682,-6.7781,-6.7732,-6.7771,-6.7726,-6.7889,-6.7731,-6.7761,-6.7734,-6.7731,-6.7741,-6.7922,-6.7927,-6.7932,-6.7935,0,-6.7281,-6.7202,-6.7311,-6.7256,-6.7245,-6.7336,-6.729,-6.7354,-6.7303,-6.7384,-6.7397,-6.732,-6.7376,-6.7299,-6.7347,-6.7307,-6.7469,-6.7421,-6.7473,-6.746,-6.7602,-6.7592,-6.8063,-6.8122,-6.7661,-6.7665,-6.7669,0,-6.6929,-6.7038,-6.6915,-6.6982,-6.7102,-6.6994,-6.7117,-6.7084,-6.7067,-6.713,-6.7006,-6.7068,-6.6957,-6.701,-6.6948,-6.7066,-6.7073,-6.705,-6.7033,-6.7062,-6.7066,-6.7078,-6.7059,-6.6984,-6.6982,-6.698,-6.6978,0,-6.6615,-6.6673,-6.6781,-6.6782,-6.6731,-6.6786,-6.6768,-6.6745,-6.6768,-6.6784,-6.6798,-6.6826,-6.6842,-6.6868,-6.6788,-6.6685,-6.6927,-6.6768,-6.6904,-6.6907,-6.6962,-6.696,-6.7396,-6.6975,-6.6974,-6.6973,-6.6973,0,-6.6318,-6.633,-6.6497,-6.6451,-6.6471,-6.6542,-6.6559,-6.6601,-6.6587,-6.655,-6.6562,-6.6469,-6.6559,-6.6408,-6.6534,-6.6422,-6.6448,-6.6431,-6.6439,-6.6444,-6.6278,-6.6538,-6.6958,-6.7001,-6.645,-6.6445,-6.6441,0,-6.5983,-6.6126,-6.6031,-6.6192,-6.6247,-6.6101,-6.6179,-6.6167,-6.6124,-6.6167,-6.612,-6.6171,-6.604,-6.6045,-6.6117,-6.6072,-6.6217,-6.6049,-6.6124,-6.6127,-6.6135,-6.6519,-6.6602,-6.6874,-6.6384,-6.639,-6.6394,0,-6.5712,-6.564,-6.5675,-6.5671,-6.5632,-6.5676,-6.5765,-6.5787,-6.5822,-6.5819,-6.5894,-6.596,-6.5867,-6.5874,-6.5799,-6.5879,-6.6116,-6.5767,-6.5765,-6.5837,-6.6346,-6.6426,-6.6472,-6.605,-6.6056,-6.6062,-6.6349,0,-6.5288,-6.5345,-6.5434,-6.5423,-6.5443,-6.5536,-6.5442,-6.5476,-6.5401,-6.535,-6.5456,-6.5422,-6.5447,-6.5474,-6.54,-6.5605,-6.5559,-6.5456,-6.5304,-6.5555,-6.5649,-6.5686,-6.5174,-6.5169,-6.5164,-6.5161,0,0,-6.499,-6.5067,-6.4955,-6.5032,-6.5042,-6.4884,-6.4992,-6.4984,-6.497,-6.4983,-6.4896,-6.4985,-6.4961,-6.5099,-6.517,-6.5179,-6.5209,-6.5122,-6.5435,-6.5466,-6.5495,-6.5596,-6.5636,-6.5153,-6.5152,-6.515,-6.5149,0,-6.4814,-6.4784,-6.4888,-6.4873,-6.4845,-6.4783,-6.4809,-6.4754,-6.4726,-6.4823,-6.4694,-6.4746,-6.4816,-6.481,-6.4816,-6.5103,-6.5004,-6.5117,-6.5304,-6.5396,-6.5432,-6.5464,-6.5572,-6.5611,-6.5138,-6.5139,-6.514,0,-6.4532,-6.4488,-6.4526,-6.4534,-6.4513,-6.4572,-6.4388,-6.4455,-6.4498,-6.4322,-6.4421,-6.439,-6.4371,-6.4511,-6.457,-6.4493,-6.4823,-6.4699,-6.4724,-6.4729,-6.4813,-6.4857,-6.4897,-6.4379,-6.4377,-6.4375,0,0,-6.4393,-6.4442,-6.4361,-6.4488,-6.4485,-6.4392,-6.4411,-6.4335,-6.4317,-6.4311,-6.4266,-6.4256,-6.4296,-6.4325,-6.4357,-6.4523,-6.4513,-6.461,-6.4645,-6.4675,-6.4697,-6.4789,-6.4832,-6.4366,-6.4366,-6.4366,0,0,-6.4327,-6.4235,-6.4159,-6.4294,-6.428,-6.4209,-6.4293,-6.4199,-6.4216,-6.4195,-6.4072,-6.4064,-6.4192,-6.4165,-6.4062,-6.4302,-6.4152,-6.4175,-6.4314,-6.4358,-6.4393,-6.4397,-6.3869,0,0,0,0,0,-6.4095,-6.4246,-6.4178,-6.4186,-6.4193,-6.4247,-6.4248,-6.4147,-6.4044,-6.4114,-6.4062,-6.3951,-6.4085,-6.399,-6.4002,-6.4119,-6.4256,-6.4275,-6.4294,-6.4512,-6.4559,-6.4598,0,0,0,0,0,0,-6.4097,-6.4106,-6.4174,-6.4111,-6.4111,-6.4241,-6.4044,-6.4021,-6.4034,-6.4011,-6.3964,-6.3949,-6.3867,-6.3978,-6.399,-6.4103,-6.3864,-6.4263,-6.428,-6.4295,-6.4528,-6.4566,-6.4599,0,0,0,0,0,-6.4098,-6.4105,-6.4142,-6.4108,-6.4108,-6.4011,-6.4038,-6.4017,-6.4025,-6.3943,-6.3924,-6.3948,-6.3872,-6.3876,-6.3984,-6.41,-6.3855,-6.386,-6.4274,-6.4287,-6.4299,-6.4547,0,0,0,0,0,0,-6.4099,-6.4088,-6.414,-6.4136,-6.4041,-6.4002,-6.3992,-6.4014,-6.3953,-6.3936,-6.3919,-6.3902,-6.3879,-6.388,-6.3883,-6.4104,-6.3848,-6.3853,-6.3856,-6.4284,-6.4295,-6.4304,0,0,0,0,0,0,-6.4083,-6.4087,-6.4138,-6.4059,-6.4045,-6.3994,-6.3985,-6.4061,-6.3955,-6.3933,-6.3917,-6.3913,-6.3875,-6.3884,-6.3886,-6.4009,-6.3842,-6.3847,-6.385,-6.3852,-6.4293,-6.4301,0,0,0,0,0,0,-6.4083,-6.4085,-6.4059,-6.4049,-6.4036,-6.3991,-6.406,-6.4074,-6.3884,-6.3938,-6.3864,-6.3855,-6.3882,-6.3881,-6.3888,-6.4012,-6.401,-6.3842,-6.3846,-6.3848,-6.3849,0,0,0,0,0,0,0,-6.4083,-6.4088,-6.416,-6.404,-6.4029,-6.4105,-6.4104,-6.4103,-6.3882,-6.3874,-6.3866,-6.3859,-6.3815,-6.382,-6.3825,-6.4014,0,0,-6.3842,-6.3844,0,0,0,0,0,0,0,0,-6.4084,-6.4087,-6.416,-6.4159,-6.4158,-6.4105,-6.4104,-6.4103,-6.3881,-6.3874,-6.3868,-6.3862,-6.3816,-6.3821,-6.3825,0,0,0,0,0,0,0,0,0,0,0,0,0,0,0,-6.4159,-6.4159,0,-6.4104,-6.4104,-6.4103,-6.388,-6.3875,-6.3869,-6.3865,-6.3818,-6.3821,-6.3825,0,0,0,0,0,0,0,0,0,0,0,0,0,0,0,0,0,0,0,0,0,0,0,0,0,0,0,0,0,0,0,0,0,0,0,0,0,0,0,0,0,0,0,0,0,0,0,0,0,0,0,0,0,0,0,0,0,0,0,0,0,0,0,0,0,0,0,0,0]}],[{"header":{"parameterUnit":"kt","parameterCategory":2,"dx":1,"dy":1,"la1":30.253999710083008,"la2":30.299108505249023,"lo1":-89.0895004272461,"lo2":-89.04439544677734,"nx":28,"ny":28,"refTime":"2022-09-17T21:00:00:Z","depth":0,"parameterNumber":2,"parameterNumberName":"V-component_of_WINDS"},"data":[-0.0643,-0.0663,-0.0609,-0.0608,-0.056,-0.055,-0.053,-0.0499,-0.046,-0.0444,-0.0426,-0.0375,-0.0317,-0.0284,-0.0262,-0.0241,-0.0238,-0.0283,-0.0251,-0.0092,-0.0067,-0.0043,-0.0035,-0.0282,-0.0282,-0.0424,-0.0426,-0.0427,-0.0532,-0.0484,-0.0467,-0.0415,-0.04,-0.0324,-0.0276,-0.027,-0.0264,-0.0217,-0.0195,-0.0177,-0.0157,-0.0082,-0.0054,-0.0064,-0.0028,-0.0061,-0.0062,-0.0055,0.0119,0.0126,-0.009,-0.009,-0.009,-0.009,-0.009,-0.009,-0.0316,-0.033,-0.0266,-0.0247,-0.0206,-0.0172,-0.0176,-0.0112,-0.0096,-0.0059,0.0002,0.0009,0.0065,0.0125,0.0158,0.0163,0.0208,0.0188,0.0182,0.0174,0.0158,0.035,0.0171,0.0172,0.0173,0.0174,0.0174,0,-0.0143,-0.0097,-0.0076,-0.0041,-0.0023,0.0009,0.0048,0.0047,0.0161,0.017,0.0186,0.0204,0.0239,0.0259,0.0297,0.0336,0.0411,0.0427,0.0412,0.038,0.0346,0.0359,0.0635,0.043,0.0432,0.0434,0.0435,0.0436,0.0075,0.0054,0.0147,0.0154,0.0189,0.0198,0.0215,0.0318,0.033,0.0392,0.0374,0.0397,0.042,0.0435,0.0507,0.0532,0.0568,0.0484,0.0572,0.0544,0.0562,0.056,0.0557,0.0462,0.0459,0.0456,0.0454,0,0.0191,0.028,0.0265,0.0359,0.0382,0.0354,0.0434,0.0424,0.0487,0.0482,0.0487,0.0584,0.0597,0.0684,0.0717,0.0761,0.0711,0.0748,0.0692,0.0702,0.0632,0.0635,0.0398,0.037,0.0632,0.063,0.0627,0,0.041,0.0378,0.0512,0.0498,0.0467,0.0571,0.0536,0.0587,0.0639,0.0636,0.074,0.0734,0.0847,0.0853,0.0919,0.0894,0.0902,0.0932,0.0949,0.092,0.0915,0.0923,0.0932,0.0994,0.0995,0.0996,0.0997,0,0.0579,0.0615,0.0595,0.0617,0.0713,0.0701,0.074,0.0799,0.0814,0.0847,0.0857,0.0888,0.0903,0.0925,0.1008,0.1064,0.0982,0.1076,0.1012,0.1009,0.0985,0.0984,0.0757,0.0998,0.0998,0.0999,0.0999,0,0.0767,0.0801,0.0759,0.0842,0.0846,0.0833,0.0871,0.088,0.0935,0.0976,0.1003,0.108,0.107,0.1157,0.1142,0.1191,0.12,0.123,0.1227,0.1226,0.1319,0.1173,0.0953,0.0931,0.1232,0.1234,0.1235,0,0.0934,0.0916,0.1007,0.0964,0.0967,0.1083,0.1071,0.1116,0.1171,0.118,0.124,0.1249,0.1333,0.1347,0.133,0.1389,0.1326,0.1402,0.1407,0.1406,0.1384,0.1184,0.1127,0.0993,0.1262,0.1259,0.1257,0,0.1074,0.1194,0.118,0.1209,0.1289,0.1292,0.1278,0.1311,0.1312,0.1354,0.1341,0.1359,0.1422,0.1445,0.1511,0.1487,0.1372,0.1557,0.1559,0.1516,0.1284,0.1229,0.1206,0.1421,0.1418,0.1416,0.1278,0,0.1331,0.1335,0.1303,0.1364,0.1381,0.1361,0.1455,0.1461,0.1524,0.1581,0.1567,0.1626,0.1658,0.1657,0.1717,0.1637,0.1663,0.1729,0.1816,0.1685,0.1642,0.1624,0.1873,0.1877,0.1879,0.1881,0,0,0.1466,0.1473,0.1573,0.1563,0.1583,0.1704,0.1673,0.1706,0.177,0.178,0.1831,0.1862,0.1907,0.1878,0.1845,0.1859,0.1852,0.1894,0.1748,0.1732,0.1719,0.167,0.1651,0.1886,0.1887,0.1888,0.1889,0,0.1578,0.1628,0.1598,0.1638,0.1701,0.1764,0.1757,0.1839,0.1874,0.1862,0.1958,0.1961,0.1982,0.2017,0.2037,0.1902,0.1971,0.1905,0.1799,0.1771,0.1752,0.1736,0.1684,0.1665,0.1895,0.1895,0.1895,0,0.173,0.1793,0.1789,0.1844,0.1885,0.1886,0.2002,0.1999,0.2,0.2128,0.2113,0.2158,0.2212,0.2175,0.2162,0.2206,0.2073,0.2133,0.2119,0.2118,0.2095,0.2072,0.2052,0.2317,0.2318,0.2319,0,0,0.1814,0.1819,0.1917,0.1875,0.1895,0.1988,0.1998,0.2062,0.211,0.2129,0.2188,0.223,0.2244,0.225,0.2268,0.2214,0.2232,0.2181,0.2161,0.2145,0.2134,0.2107,0.2084,0.2323,0.2323,0.2323,0,0,0.1853,0.1966,0.2021,0.1985,0.2029,0.212,0.209,0.2159,0.2185,0.2198,0.2302,0.2318,0.2285,0.2325,0.2369,0.2299,0.2384,0.2376,0.2274,0.225,0.2231,0.222,0.2493,0,0,0,0,0,0.2016,0.1952,0.2002,0.201,0.2078,0.2094,0.2103,0.2189,0.2248,0.2222,0.2282,0.2357,0.237,0.2412,0.2417,0.2365,0.2376,0.2366,0.2358,0.2215,0.2189,0.2167,0,0,0,0,0,0,0.202,0.2029,0.2004,0.2091,0.2108,0.2097,0.2214,0.2236,0.2253,0.2267,0.2344,0.236,0.2432,0.2416,0.2419,0.2367,0.2492,0.2372,0.2364,0.2357,0.2206,0.2185,0.2166,0,0,0,0,0,0.2023,0.2031,0.2118,0.2093,0.2107,0.2207,0.2218,0.2237,0.2251,0.2344,0.2362,0.2314,0.2428,0.2437,0.2418,0.2364,0.249,0.2491,0.2367,0.2361,0.2355,0.2195,0,0,0,0,0,0,0.2026,0.2048,0.2123,0.2131,0.2123,0.2209,0.2226,0.2237,0.2328,0.2346,0.232,0.233,0.2425,0.2432,0.2438,0.2357,0.2489,0.249,0.2491,0.2362,0.2357,0.2353,0,0,0,0,0,0,0.2045,0.2053,0.2127,0.2161,0.2173,0.2211,0.2225,0.2222,0.2327,0.2299,0.2311,0.2323,0.2415,0.2428,0.2434,0.2424,0.2488,0.2489,0.249,0.249,0.2358,0.2354,0,0,0,0,0,0,0.205,0.2058,0.216,0.2169,0.218,0.227,0.2209,0.2273,0.2359,0.2293,0.2368,0.2373,0.2409,0.2416,0.243,0.2418,0.2423,0.2488,0.2489,0.2489,0.2489,0,0,0,0,0,0,0,0.2054,0.1982,0.2079,0.2175,0.2185,0.2199,0.2201,0.2203,0.236,0.2363,0.2367,0.2371,0.2483,0.2484,0.2485,0.2412,0,0,0.2488,0.2488,0,0,0,0,0,0,0,0,0.1981,0.1982,0.208,0.2081,0.2083,0.22,0.2201,0.2203,0.236,0.2363,0.2367,0.237,0.2484,0.2484,0.2485,0,0,0,0,0,0,0,0,0,0,0,0,0,0,0,0.208,0.2081,0,0.22,0.2201,0.2203,0.2361,0.2363,0.2366,0.2368,0.2484,0.2484,0.2485,0,0,0,0,0,0,0,0,0,0,0,0,0,0,0,0,0,0,0,0,0,0,0,0,0,0,0,0,0,0,0,0,0,0,0,0,0,0,0,0,0,0,0,0,0,0,0,0,0,0,0,0,0,0,0,0,0,0,0,0,0,0,0,0,0,0,0,0,0]}]]]